| time (UTC) | temp C | wind direction | speed KPH | gust KPH | rain 1hr cm | rain 24hr cm | rain mn cm | humidity % | barometer mb |
| 20260507032803 | 17 | 308 | 4.8 | 8.0 | 0.00 | 0.00 | 0.00 | 75 | 1015.8 |
| 20260507031803 | 17 | 317 | 1.6 | 8.0 | 0.00 | 0.00 | 0.00 | 75 | 1015.6 |
| 20260507025802 | 18 | 301 | 6.4 | 16.1 | 0.00 | 0.00 | 0.00 | 73 | 1015.5 |
| 20260507024803 | 18 | 297 | 8.0 | 16.1 | 0.00 | 0.00 | 0.00 | 74 | 1015.4 |
| 20260507015803 | 20 | 283 | 8.0 | 16.1 | 0.00 | 0.00 | 0.00 | 66 | 1014.9 |
| 20260507014802 | 21 | 313 | 4.8 | 14.5 | 0.00 | 0.00 | 0.00 | 65 | 1014.9 |
| 20260507012803 | 21 | 301 | 6.4 | 17.7 | 0.00 | 0.00 | 0.00 | 66 | 1014.7 |
| 20260507011824 | 21 | 283 | 8.0 | 19.3 | 0.00 | 0.00 | 0.00 | 66 | 1014.6 |
| 20260507005803 | 21 | 285 | 6.4 | 17.7 | 0.00 | 0.00 | 0.00 | 65 | 1014.5 |
| 20260507004802 | 22 | 303 | 11.3 | 20.9 | 0.00 | 0.00 | 0.00 | 63 | 1014.5 |
| 20260507002802 | 22 | 277 | 11.3 | 19.3 | 0.00 | 0.00 | 0.00 | 58 | 1014.5 |
| 20260507001803 | 23 | 293 | 9.7 | 19.3 | 0.00 | 0.00 | 0.00 | 57 | 1014.4 |
| 20260506235802 | 25 | 228 | 4.8 | 14.5 | 0.00 | 0.00 | 0.00 | 57 | 1014.4 |
| 20260506234803 | 24 | 240 | 3.2 | 14.5 | 0.00 | 0.00 | 0.00 | 57 | 1014.4 |
| 20260506232803 | 24 | 224 | 8.0 | 20.9 | 0.00 | 0.00 | 0.00 | 58 | 1014.4 |
| 20260506231803 | 24 | 232 | 6.4 | 16.1 | 0.00 | 0.00 | 0.00 | 58 | 1014.5 |
| 20260506225802 | 23 | 216 | 6.4 | 25.7 | 0.00 | 0.00 | 0.00 | 60 | 1014.8 |
| 20260506224803 | 23 | 237 | 6.4 | 16.1 | 0.00 | 0.00 | 0.00 | 57 | 1014.9 |
| 20260506222803 | 23 | 240 | 9.7 | 17.7 | 0.00 | 0.00 | 0.00 | 58 | 1015.1 |
| 20260506221802 | 23 | 220 | 6.4 | 19.3 | 0.00 | 0.00 | 0.00 | 61 | 1015.0 |
| 20260506215803 | 23 | 236 | 8.0 | 22.5 | 0.00 | 0.00 | 0.00 | 61 | 1015.5 |
| 20260506214824 | 23 | 212 | 3.2 | 19.3 | 0.00 | 0.00 | 0.00 | 59 | 1015.6 |
| 20260506212803 | 23 | 224 | 8.0 | 17.7 | 0.00 | 0.00 | 0.00 | 60 | 1015.8 |
| 20260506211803 | 23 | 232 | 6.4 | 17.7 | 0.00 | 0.00 | 0.00 | 60 | 1016.0 |
| 20260506205803 | 22 | 229 | 6.4 | 17.7 | 0.00 | 0.00 | 0.00 | 58 | 1016.1 |
| 20260506204803 | 22 | 250 | 6.4 | 19.3 | 0.00 | 0.00 | 0.00 | 60 | 1016.2 |
| 20260506202802 | 22 | 212 | 6.4 | 16.1 | 0.00 | 0.00 | 0.00 | 61 | 1016.4 |
| 20260506201803 | 22 | 216 | 4.8 | 16.1 | 0.00 | 0.00 | 0.00 | 60 | 1016.6 |
| 20260506195803 | 22 | 221 | 6.4 | 16.1 | 0.00 | 0.00 | 0.00 | 63 | 1016.7 |
| 20260506194802 | 22 | 211 | 4.8 | 17.7 | 0.00 | 0.00 | 0.00 | 61 | 1016.8 |
| 20260506192803 | 22 | 208 | 4.8 | 14.5 | 0.00 | 0.00 | 0.00 | 61 | 1016.9 |
| 20260506191803 | 22 | 222 | 6.4 | 14.5 | 0.00 | 0.00 | 0.00 | 64 | 1017.0 |
| 20260506185803 | 22 | 219 | 3.2 | 14.5 | 0.00 | 0.00 | 0.00 | 64 | 1017.2 |
| 20260506184803 | 22 | 210 | 3.2 | 11.3 | 0.00 | 0.00 | 0.00 | 66 | 1017.3 |
| 20260506182803 | 22 | 210 | 4.8 | 11.3 | 0.00 | 0.00 | 0.00 | 67 | 1017.4 |
| 20260506181824 | 21 | 201 | 4.8 | 16.1 | 0.00 | 0.00 | 0.00 | 68 | 1017.4 |
| 20260506175802 | 21 | 177 | 3.2 | 9.7 | 0.00 | 0.00 | 0.00 | 71 | 1017.5 |
| 20260506174803 | 21 | 225 | 8.0 | 19.3 | 0.00 | 0.00 | 0.00 | 70 | 1017.6 |
| 20260506172803 | 20 | 213 | 3.2 | 14.5 | 0.00 | 0.00 | 0.00 | 70 | 1017.5 |
| 20260506171802 | 20 | 170 | 4.8 | 9.7 | 0.00 | 0.00 | 0.00 | 71 | 1017.5 |
| 20260506165824 | 21 | 178 | 3.2 | 11.3 | 0.00 | 0.00 | 0.00 | 68 | 1017.4 |
| 20260506164802 | 20 | 200 | 3.2 | 11.3 | 0.00 | 0.00 | 0.00 | 68 | 1017.4 |
| 20260506162802 | 20 | 317 | 3.2 | 9.7 | 0.00 | 0.00 | 0.00 | 68 | 1017.5 |
| 20260506161803 | 20 | 207 | 3.2 | 8.0 | 0.00 | 0.00 | 0.00 | 70 | 1017.4 |
| 20260506155824 | 19 | 147 | 1.6 | 8.0 | 0.00 | 0.00 | 0.00 | 72 | 1017.6 |
| 20260506154803 | 19 | 119 | 3.2 | 8.0 | 0.00 | 0.00 | 0.00 | 74 | 1017.6 |
| 20260506152802 | 18 | 61 | 4.8 | 8.0 | 0.00 | 0.00 | 0.00 | 77 | 1017.6 |
| 20260506151824 | 17 | 79 | 3.2 | 8.0 | 0.00 | 0.00 | 0.00 | 79 | 1017.7 |
| 20260506145803 | 16 | 93 | 3.2 | 8.0 | 0.00 | 0.00 | 0.00 | 81 | 1017.6 |
| 20260506144803 | 15 | 105 | 3.2 | 8.0 | 0.00 | 0.00 | 0.00 | 84 | 1017.6 |
| 20260506142823 | 13 | 88 | 1.6 | 4.8 | 0.00 | 0.00 | 0.00 | 95 | 1017.6 |
| 20260506141803 | 12 | 82 | 1.6 | 6.4 | 0.00 | 0.00 | 0.00 | 99 | 1017.5 |
| 20260506135803 | 11 | 63 | 0.0 | 3.2 | 0.00 | 0.00 | 0.00 | 98 | 1017.4 |
| 20260506134802 | 11 | 324 | 0.0 | 1.6 | 0.00 | 0.00 | 0.00 | 98 | 1017.4 |
| 20260506132803 | 11 | 264 | 0.0 | 1.6 | 0.00 | 0.00 | 0.00 | 97 | 1017.3 |
| 20260506131802 | 11 | 297 | 0.0 | 1.6 | 0.00 | 0.00 | 0.00 | 97 | 1017.0 |
| 20260506125803 | 11 | 51 | 0.0 | 1.6 | 0.00 | 0.00 | 0.00 | 96 | 1016.8 |
| 20260506124802 | 11 | 15 | 0.0 | 1.6 | 0.00 | 0.00 | 0.00 | 96 | 1016.8 |
| 20260506122803 | 11 | 309 | 0.0 | 0.0 | 0.00 | 0.00 | 0.00 | 96 | 1016.5 |
| 20260506121803 | 11 | 9 | 0.0 | 1.6 | 0.00 | 0.00 | 0.00 | 96 | 1016.5 |
| 20260506115802 | 11 | 37 | 0.0 | 1.6 | 0.00 | 0.00 | 0.00 | 96 | 1016.4 |
| 20260506114803 | 11 | 18 | 0.0 | 1.6 | 0.00 | 0.00 | 0.00 | 96 | 1016.4 |
| 20260506112802 | 12 | 51 | 0.0 | 1.6 | 0.00 | 0.00 | 0.00 | 96 | 1016.2 |
| 20260506111803 | 12 | 42 | 0.0 | 1.6 | 0.00 | 0.00 | 0.00 | 96 | 1016.3 |
| 20260506105803 | 12 | 83 | 0.0 | 3.2 | 0.00 | 0.08 | 0.00 | 97 | 1016.2 |
| 20260506104803 | 12 | 59 | 1.6 | 3.2 | 0.00 | 0.08 | 0.00 | 95 | 1016.3 |
| 20260506102823 | 12 | 9 | 0.0 | 1.6 | 0.00 | 0.08 | 0.00 | 95 | 1016.2 |
| 20260506101803 | 12 | 39 | 0.0 | 1.6 | 0.00 | 0.08 | 0.00 | 95 | 1016.2 |
| 20260506095803 | 12 | 37 | 0.0 | 1.6 | 0.00 | 0.08 | 0.00 | 95 | 1016.3 |
| 20260506094803 | 12 | 90 | 1.6 | 1.6 | 0.00 | 0.08 | 0.00 | 95 | 1016.3 |
| 20260506092803 | 13 | 59 | 0.0 | 1.6 | 0.00 | 0.08 | 0.00 | 95 | 1016.4 |
| 20260506091803 | 13 | 106 | 0.0 | 1.6 | 0.00 | 0.10 | 0.00 | 95 | 1016.4 |
| 20260506085803 | 12 | 115 | 0.0 | 1.6 | 0.00 | 0.13 | 0.00 | 94 | 1016.5 |
| 20260506084803 | 13 | 93 | 0.0 | 1.6 | 0.00 | 0.13 | 0.00 | 93 | 1016.5 |
| 20260506082803 | 13 | 165 | 0.0 | 1.6 | 0.00 | 0.15 | 0.00 | 94 | 1016.6 |
| 20260506081803 | 13 | 337 | 0.0 | 1.6 | 0.00 | 0.23 | 0.00 | 94 | 1016.7 |
| 20260506072803 | 13 | 134 | 0.0 | 3.2 | 0.00 | 0.41 | 0.33 | 93 | 1016.7 |
| 20260506071845 | 13 | 151 | 0.0 | 3.2 | 0.00 | 0.41 | 0.33 | 93 | 1016.7 |
| 20260506061802 | 13 | 318 | 0.0 | 1.6 | 0.00 | 0.48 | 0.33 | 91 | 1016.3 |
| 20260506044803 | 15 | 237 | 1.6 | 3.2 | 0.00 | 0.51 | 0.33 | 85 | 1015.4 |
| 20260506042803 | 15 | 224 | 1.6 | 4.8 | 0.00 | 0.51 | 0.33 | 83 | 1015.3 |
| 20260506041802 | 16 | 226 | 0.0 | 3.2 | 0.00 | 0.51 | 0.33 | 82 | 1015.3 |
| 20260506035803 | 16 | 185 | 0.0 | 3.2 | 0.00 | 0.51 | 0.33 | 79 | 1014.9 |
| 20260506034803 | 16 | 224 | 1.6 | 6.4 | 0.00 | 0.51 | 0.33 | 78 | 1014.8 |